[[{"header":{"parameterUnit":"m.s-1","parameterCategory":1,"la1":30.2991,"la2":30.254,"lo1":-89.0895,"lo2":-89.0444,"dy":0.0017,"dx":0.0017,"nx":28,"ny":28,"refTime":"2024-06-03T21:00:00:Z","depth":0,"parameterNumber":2,"parameterNumberName":"U-component_of_WINDS"},"data":[0,0,0,0,0,0,0,0,0,0,0,0,0,0,0,0,0,0,0,0,0,0,0,0,0,0,0,0,0,0,0,0,0,0,0,0,0,0,0,0,0,0,0,0,0,0,0,0,0,0,0,0,0,0,0,0,0,0,0.7719,0.7719,0,0.7695,0.7695,0.7694,0.767,0.767,0.767,0.767,0.7643,0.7643,0.7642,0,0,0,0,0,0,0,0,0,0,0,0,0,0.7742,0.7742,0.7719,0.7719,0.7719,0.7695,0.7695,0.7694,0.767,0.767,0.767,0.7669,0.7643,0.7643,0.7642,0,0,0,0,0,0,0,0,0,0,0,0,0,0.7727,0.7742,0.7719,0.7704,0.7702,0.7695,0.7695,0.7694,0.7671,0.767,0.767,0.7669,0.7644,0.7643,0.7642,0.7648,0,0,0.764,0.764,0,0,0,0,0,0,0,0,0.7727,0.7726,0.7706,0.7705,0.7703,0.7685,0.7693,0.7679,0.7671,0.7683,0.767,0.7669,0.7657,0.7656,0.7652,0.7647,0.7645,0.764,0.764,0.764,0.764,0,0,0,0,0,0,0,0.7729,0.7727,0.771,0.7706,0.7704,0.7697,0.7695,0.769,0.7673,0.7681,0.768,0.7677,0.7656,0.7653,0.7651,0.7645,0.764,0.764,0.7639,0.7639,0.764,0.7641,0,0,0,0,0,0,0.7732,0.7728,0.771,0.7709,0.7714,0.7697,0.7694,0.7691,0.7673,0.767,0.7678,0.7676,0.7654,0.7652,0.765,0.7654,0.764,0.7639,0.7639,0.764,0.764,0.7641,0,0,0,0,0,0,0.7733,0.7731,0.7711,0.7718,0.7715,0.7697,0.7694,0.7691,0.7687,0.767,0.7667,0.7677,0.7654,0.7651,0.7648,0.7653,0.7639,0.7638,0.7639,0.764,0.7641,0.7663,0,0,0,0,0,0,0.7734,0.7731,0.7734,0.7718,0.7714,0.7711,0.7695,0.7691,0.7687,0.7685,0.7669,0.7666,0.7653,0.7649,0.7648,0.7652,0.7638,0.7639,0.764,0.764,0.7661,0.7664,0.7666,0,0,0,0,0,0.7735,0.7741,0.7734,0.7732,0.7718,0.7711,0.7709,0.7695,0.7687,0.7689,0.7677,0.7666,0.7653,0.7649,0.7647,0.7651,0.7639,0.764,0.764,0.766,0.7663,0.7666,0,0,0,0,0,0,0.7758,0.7739,0.7731,0.7733,0.7724,0.7707,0.7709,0.7699,0.7691,0.7689,0.7672,0.7668,0.7667,0.7659,0.7655,0.7654,0.7644,0.7644,0.766,0.7663,0.7665,0.7667,0.7637,0,0,0,0,0,0.7764,0.7761,0.7744,0.7747,0.7743,0.7727,0.7723,0.7713,0.7703,0.7699,0.7687,0.7677,0.767,0.7666,0.7659,0.766,0.7655,0.7662,0.7664,0.7666,0.7666,0.7665,0.7667,0.7644,0.7644,0.7644,0,0,0.7775,0.7764,0.7763,0.7751,0.7743,0.7739,0.7724,0.7721,0.7717,0.7698,0.7694,0.7685,0.7672,0.7671,0.767,0.7664,0.7672,0.7667,0.7669,0.7668,0.7666,0.7668,0.767,0.7644,0.7644,0.7644,0,0,0.7793,0.7785,0.7786,0.7778,0.7766,0.7755,0.7755,0.7739,0.7733,0.7729,0.7713,0.7709,0.7698,0.7689,0.7683,0.7696,0.7684,0.7694,0.7706,0.7704,0.7706,0.7708,0.7711,0.7713,0.7695,0.7695,0.7695,0,0.7809,0.7803,0.7788,0.7786,0.778,0.7762,0.7763,0.7755,0.7741,0.7737,0.7731,0.7716,0.7706,0.7701,0.7704,0.7701,0.7699,0.7696,0.7707,0.7709,0.771,0.7713,0.7714,0.7696,0.7696,0.7696,0.7695,0,0.7822,0.7818,0.782,0.7807,0.7802,0.7801,0.7784,0.7781,0.777,0.776,0.7755,0.7742,0.7731,0.773,0.772,0.7723,0.772,0.7711,0.77,0.7713,0.7716,0.7717,0.7697,0.7697,0.7697,0.7696,0,0,0.7855,0.7833,0.7834,0.7827,0.7811,0.7807,0.7804,0.7794,0.779,0.7781,0.7777,0.7767,0.7758,0.7752,0.774,0.7739,0.7748,0.773,0.7729,0.7733,0.7749,0.7756,0.7757,0.7741,0.7741,0.7741,0.775,0,0.787,0.7865,0.7851,0.7849,0.7845,0.7827,0.7824,0.7814,0.7803,0.7797,0.7785,0.7778,0.7767,0.7763,0.7761,0.7748,0.7751,0.7747,0.7736,0.7735,0.7739,0.7759,0.7766,0.7775,0.7751,0.7751,0.7751,0,0.7887,0.7878,0.7877,0.786,0.7857,0.7855,0.7844,0.7838,0.7825,0.7817,0.7809,0.7796,0.7791,0.7781,0.7772,0.7769,0.7764,0.7756,0.7756,0.7754,0.7744,0.7756,0.7778,0.7779,0.7753,0.7753,0.7752,0,0.791,0.7898,0.7895,0.7889,0.787,0.7869,0.786,0.7847,0.7841,0.783,0.7826,0.7815,0.7809,0.78,0.7784,0.7778,0.7776,0.7766,0.7769,0.7769,0.7769,0.7769,0.7789,0.7766,0.7766,0.7766,0.7766,0,0.7927,0.7927,0.7904,0.7903,0.7901,0.7884,0.7882,0.7872,0.786,0.7854,0.7838,0.7834,0.7813,0.7805,0.7793,0.7787,0.7784,0.7777,0.7773,0.7778,0.7779,0.7774,0.7772,0.7767,0.7767,0.7767,0.7767,0,0.7953,0.7938,0.7933,0.7915,0.791,0.791,0.7893,0.789,0.7878,0.7872,0.7869,0.785,0.784,0.7823,0.7808,0.78,0.7795,0.779,0.78,0.7798,0.7801,0.7801,0.7818,0.7819,0.7797,0.7797,0.7798,0,0.7965,0.7964,0.7945,0.7941,0.7933,0.7926,0.792,0.7903,0.7897,0.7881,0.7879,0.7868,0.7858,0.7842,0.7827,0.7814,0.7808,0.7815,0.7806,0.781,0.7807,0.7807,0.7806,0.7817,0.7817,0.7818,0.7818,0,0.7987,0.7979,0.7972,0.7961,0.7954,0.7945,0.7934,0.7931,0.7911,0.7905,0.7895,0.7887,0.7871,0.786,0.7845,0.7835,0.7823,0.7821,0.782,0.7825,0.783,0.7826,0.7805,0.782,0.782,0.782,0.782,0.782,0.8005,0.8003,0.7989,0.7981,0.7971,0.7961,0.7957,0.7944,0.7936,0.7922,0.7912,0.7902,0.7887,0.7866,0.7857,0.7848,0.7842,0.7842,0.7842,0.7842,0.7843,0.7832,0.7845,0.7845,0.7845,0.7845,0.7845,0,0.8026,0.8016,0.8008,0.7994,0.7987,0.7976,0.7964,0.7958,0.795,0.7937,0.7928,0.7915,0.7903,0.7886,0.7873,0.7868,0.7862,0.7865,0.7865,0.7863,0.785,0.7851,0.7871,0.7871,0.7871,0.7871,0.7871,0.7871,0.8036,0.8031,0.8022,0.8011,0.8001,0.7992,0.7985,0.7976,0.7965,0.7952,0.7942,0.7932,0.7916,0.7902,0.789,0.7885,0.788,0.7885,0.7878,0.7866,0.7864,0.7862,0.7862,0.7884,0.7884,0.7892,0.7892,0.7892]},{"header":{"parameterUnit":"m.s-1","parameterCategory":1,"la1":30.2991,"la2":30.254,"lo1":-89.0895,"lo2":-89.0444,"dy":0.0017,"dx":0.0017,"nx":28,"ny":28,"refTime":"2024-06-03T21:00:00:Z","depth":0,"parameterNumber":3,"parameterNumberName":"V-component_of_WINDS"},"data":[0,0,0,0,0,0,0,0,0,0,0,0,0,0,0,0,0,0,0,0,0,0,0,0,0,0,0,0,0,0,0,0,0,0,0,0,0,0,0,0,0,0,0,0,0,0,0,0,0,0,0,0,0,0,0,0,0,0,4.493,4.4932,0,4.5127,4.5129,4.5132,4.5149,4.5147,4.5145,4.5143,4.5339,4.5346,4.5353,0,0,0,0,0,0,0,0,0,0,0,0,0,4.4565,4.4571,4.493,4.4932,4.4935,4.5127,4.5129,4.5132,4.5149,4.5147,4.5144,4.5142,4.5336,4.5345,4.5353,0,0,0,0,0,0,0,0,0,0,0,0,0,4.4739,4.4574,4.493,4.4967,4.4972,4.5126,4.513,4.5133,4.515,4.5147,4.5143,4.514,4.5333,4.5344,4.5354,4.5483,0,0,4.5387,4.5392,0,0,0,0,0,0,0,0,4.4729,4.4752,4.4959,4.4964,4.4971,4.511,4.5073,4.525,4.515,4.5082,4.5143,4.5139,4.5265,4.5281,4.5325,4.5493,4.5501,4.5388,4.5395,4.5399,4.5402,0,0,0,0,0,0,0,4.4717,4.4744,4.5008,4.4962,4.4969,4.4972,4.4994,4.5106,4.5188,4.5088,4.509,4.5113,4.5267,4.5314,4.5329,4.5504,4.5388,4.5397,4.5404,4.5408,4.5789,4.5793,0,0,0,0,0,0,4.4698,4.4733,4.5002,4.5014,4.484,4.4981,4.5005,4.5069,4.5187,4.5202,4.5115,4.5113,4.5297,4.5317,4.5336,4.5497,4.5399,4.5409,4.5416,4.5786,4.579,4.5794,0,0,0,0,0,0,4.469,4.4722,4.4994,4.4874,4.4909,4.4991,4.5062,4.5074,4.5121,4.5208,4.5222,4.5148,4.5296,4.5321,4.5448,4.5504,4.5414,4.5424,4.5781,4.5787,4.5792,4.5817,0,0,0,0,0,0,4.468,4.4719,4.477,4.4875,4.4915,4.5103,4.5066,4.508,4.514,4.5139,4.5243,4.5257,4.5295,4.5431,4.5458,4.5517,4.5432,4.5777,4.5784,4.579,4.5812,4.5823,4.5832,0,0,0,0,0,4.4667,4.4767,4.4772,4.4804,4.4981,4.5106,4.5129,4.5172,4.5145,4.5196,4.5252,4.5254,4.5493,4.5444,4.5475,4.5537,4.5773,4.5782,4.579,4.5807,4.5821,4.5832,0,0,0,0,0,0,4.4663,4.4782,4.4788,4.4926,4.5006,4.5109,4.5174,4.5185,4.5273,4.5268,4.5316,4.5339,4.5465,4.5513,4.5457,4.5669,4.563,4.5645,4.5633,4.5646,4.5657,4.5642,4.5441,0,0,0,0,0,4.4679,4.4773,4.487,4.4982,4.5022,4.5092,4.5148,4.5175,4.5259,4.5292,4.5357,4.5437,4.5531,4.5591,4.5682,4.5819,4.5842,4.5877,4.5887,4.5895,4.5907,4.5985,4.6002,4.5821,4.5821,4.5821,0,0,4.4711,4.4788,4.4843,4.4984,4.5049,4.5144,4.512,4.522,4.5291,4.5307,4.5431,4.5482,4.5574,4.5707,4.5769,4.5752,4.5963,4.5906,4.5912,4.592,4.5995,4.6012,4.6027,4.5827,4.5826,4.5825,0,0,4.482,4.4887,4.4989,4.5055,4.5155,4.5201,4.5225,4.5327,4.5363,4.5489,4.5503,4.5587,4.5746,4.5812,4.5867,4.6003,4.6008,4.6031,4.6085,4.616,4.6174,4.6187,4.6236,4.6253,4.6042,4.6042,4.6043,0,4.4847,4.4992,4.5039,4.5141,4.5202,4.5223,4.5327,4.5388,4.5512,4.5553,4.5533,4.5735,4.5799,4.5948,4.5982,4.6025,4.6054,4.6019,4.6168,4.6182,4.6194,4.6242,4.6261,4.6045,4.6044,4.6044,4.6044,0,4.5022,4.5122,4.5192,4.5314,4.5383,4.5485,4.5546,4.5611,4.5632,4.568,4.5808,4.5886,4.5994,4.6031,4.6051,4.6184,4.617,4.6159,4.6121,4.6213,4.6259,4.6277,4.6048,4.6047,4.6046,4.6046,0,0,4.5132,4.528,4.5305,4.5362,4.5475,4.5553,4.5655,4.5763,4.5818,4.5903,4.599,4.6126,4.6117,4.6179,4.6207,4.6273,4.6377,4.6253,4.6256,4.6274,4.6529,4.6538,4.6558,4.6382,4.6385,4.6388,4.6522,0,4.5253,4.544,4.5486,4.5644,4.5738,4.576,4.585,4.5928,4.5976,4.6062,4.6113,4.621,4.6189,4.6227,4.6294,4.635,4.6429,4.6341,4.6463,4.6467,4.644,4.6582,4.6591,4.6714,4.654,4.6543,4.6545,0,4.542,4.5512,4.568,4.5783,4.5824,4.5904,4.6008,4.6089,4.6179,4.6209,4.628,4.6302,4.641,4.6366,4.6515,4.6455,4.6507,4.6543,4.6548,4.6562,4.6512,4.66,4.6754,4.6773,4.6574,4.6571,4.6569,0,4.5485,4.565,4.5773,4.582,4.5943,4.5999,4.6052,4.6139,4.6202,4.6292,4.6333,4.6433,4.6488,4.6564,4.6613,4.6577,4.6759,4.6719,4.6786,4.6785,4.6823,4.682,4.6989,4.6856,4.6856,4.6855,4.6855,0,4.5617,4.5719,4.5804,4.588,4.5995,4.6047,4.616,4.6213,4.6291,4.6376,4.6401,4.648,4.654,4.6627,4.6666,4.6784,4.6808,4.6835,4.6844,4.6834,4.683,4.6869,4.6862,4.686,4.6859,4.6858,4.6858,0,4.5708,4.577,4.5906,4.6012,4.6041,4.6121,4.6212,4.6285,4.6334,4.6443,4.6471,4.6548,4.6653,4.6709,4.6839,4.6865,4.6998,4.7002,4.6968,4.6973,4.7037,4.7031,4.7236,4.7267,4.7113,4.7114,4.7116,0,4.5789,4.5869,4.5984,4.6045,4.61,4.6196,4.6261,4.6315,4.6381,4.6491,4.6551,4.6658,4.6747,4.6913,4.6979,4.7079,4.7086,4.7152,4.7101,4.7089,4.7089,4.7084,4.7092,4.716,4.7162,4.7163,4.7164,0,4.5925,4.5952,4.6045,4.6151,4.6228,4.6312,4.6396,4.6443,4.6511,4.6584,4.6693,4.6762,4.6897,4.7002,4.7108,4.7162,4.7175,4.7179,4.7201,4.719,4.7168,4.7182,4.6993,4.7174,4.7173,4.7172,4.7172,4.7171,4.6014,4.6087,4.6181,4.6284,4.6354,4.6432,4.6507,4.6567,4.6659,4.6775,4.6801,4.6916,4.7005,4.7149,4.7205,4.7296,4.7283,4.7313,4.7321,4.7327,4.7331,4.7154,4.7315,4.7315,4.7314,4.7314,4.7314,0,4.6152,4.6214,4.631,4.6427,4.6509,4.6516,4.6609,4.6677,4.6779,4.6861,4.6949,4.7075,4.7178,4.7253,4.7359,4.7416,4.7425,4.7442,4.7438,4.7451,4.7336,4.7308,4.7434,4.7434,4.7434,4.7434,4.7434,4.7433,4.6234,4.6358,4.6397,4.6556,4.6616,4.6731,4.6784,4.6856,4.6923,4.7063,4.715,4.7199,4.728,4.7391,4.7486,4.7506,4.7544,4.7561,4.7581,4.7471,4.7459,4.7447,4.742,4.7568,4.7568,4.7689,4.769,4.7691]}]]